CFC1 CYVR-CYYJ

Flight info

Callsign CFC1
Flight time N/A
Altitude 4000
Route RICHM8/26L DAXET RNAVXZ/09
Aircraft PA34/L-SBDFGRY/S

Departure

Time N/A
Airport Vancouver International Airport (CYVR)

Arrival

Time 2026-05-03 20:21
Airport Victoria International Airport (CYYJ)
Time Latitude Longitude Altitude Speed Heading
2026-05-03 20:15 48.78193 -123.60705 2984 ft 163 kts 185°
2026-05-03 20:15 48.77190 -123.60871 2765 ft 141 kts 187°
2026-05-03 20:15 48.76170 -123.61117 2280 ft 150 kts 195°
2026-05-03 20:15 48.75178 -123.61243 2139 ft 143 kts 173°
2026-05-03 20:16 48.74317 -123.60616 2167 ft 139 kts 140°
2026-05-03 20:16 48.73601 -123.59529 1945 ft 154 kts 131°
2026-05-03 20:16 48.72799 -123.58510 2002 ft 146 kts 146°
2026-05-03 20:16 48.71940 -123.57714 2098 ft 144 kts 149°
2026-05-03 20:17 48.71082 -123.56970 2098 ft 141 kts 150°
2026-05-03 20:17 48.70227 -123.56243 2109 ft 144 kts 149°
2026-05-03 20:17 48.69352 -123.55542 2046 ft 139 kts 151°
2026-05-03 20:17 48.68643 -123.54645 2097 ft 131 kts 128°
2026-05-03 20:18 48.68087 -123.53611 1929 ft 119 kts 128°
2026-05-03 20:18 48.67542 -123.52631 1605 ft 121 kts 129°
2026-05-03 20:18 48.67026 -123.51623 1343 ft 120 kts 122°
2026-05-03 20:18 48.66615 -123.50553 1092 ft 117 kts 114°
2026-05-03 20:19 48.66292 -123.49496 804 ft 100 kts 109°
2026-05-03 20:19 48.66045 -123.48543 563 ft 98 kts 106°
2026-05-03 20:19 48.65837 -123.47571 516 ft 98 kts 103°
2026-05-03 20:19 48.65670 -123.46608 458 ft 92 kts 101°
2026-05-03 20:20 48.65520 -123.45662 372 ft 93 kts 102°
2026-05-03 20:20 48.65341 -123.44714 221 ft 93 kts 104°
2026-05-03 20:20 48.65161 -123.43794 71 ft 88 kts 104°
2026-05-03 20:20 48.65006 -123.42994 51 ft 64 kts 106°
2026-05-03 20:21 48.64925 -123.42578 51 ft 30 kts 102°
2026-05-03 20:21 48.64880 -123.42315 49 ft 22 kts 107°
2026-05-03 20:21 48.64840 -123.42118 50 ft 16 kts 108°
2026-05-03 20:21 48.64786 -123.42022 51 ft 12 kts 194°
2026-05-03 20:22 48.64734 -123.42114 51 ft 11 kts 233°
2026-05-03 20:22 48.64678 -123.42197 51 ft 12 kts 220°
2026-05-03 20:22 48.64599 -123.42262 51 ft 14 kts 195°
2026-05-03 20:22 48.64509 -123.42296 51 ft 1 kts 194°
2026-05-03 20:23 48.64498 -123.42256 51 ft 8 kts 91°
2026-05-03 20:23 48.64545 -123.42203 51 ft 10 kts 18°
2026-05-03 20:23 48.64577 -123.42195 51 ft 3 kts 316°
2026-05-03 20:23 48.64580 -123.42205 51 ft 0 kts 283°